GW4987 Weather Reports


Display with metric or nautical units.
time (UTC)temp
F
wind
direction
speed
MPH
gust
MPH
rain 1hr
in
rain 24hr
in
rain mn
in
humidity
%
barometer
mb
20260906133004 66 337 0.0 2.0 0.00 0.00 0.00 54 1021.8
20260906132504 66 281 3.0 3.0 0.00 0.00 0.00 54 1021.7
20260906132004 66 284 2.0 3.0 0.00 0.00 0.00 55 1021.7
20260906131503 66 267 2.0 3.0 0.00 0.00 0.00 55 1021.7
20260906131003 66 253 3.0 3.0 0.00 0.00 0.00 55 1021.4
20260906130503 66 247 3.0 3.0 0.00 0.00 0.00 55 1021.5
20260906130004 66 255 2.0 3.0 0.00 0.00 0.00 55 1021.4
20260906125504 66 254 3.0 3.0 0.00 0.00 0.00 55 1021.5
20260906125004 66 269 2.0 4.0 0.00 0.00 0.00 55 1021.5
20260906124504 66 267 2.0 3.0 0.00 0.00 0.00 55 1021.7
20260906124004 66 281 2.0 3.0 0.00 0.00 0.00 56 1021.4
20260906123504 66 254 2.0 3.0 0.00 0.00 0.00 55 1021.5
20260906123003 66 194 0.0 2.0 0.00 0.00 0.00 55 1021.5
20260906122503 67 305 2.0 3.0 0.00 0.00 0.00 54 1021.4
20260906122004 67 264 4.0 5.0 0.00 0.00 0.00 55 1021.4
20260906121503 66 306 0.0 2.0 0.00 0.00 0.00 55 1021.5
20260906121003 66 278 2.0 2.0 0.00 0.00 0.00 55 1021.5
20260906120504 66 251 2.0 3.0 0.00 0.00 0.00 55 1021.5
20260906120004 66 260 2.0 3.0 0.00 0.00 0.00 55 1021.3
20260906115503 66 274 3.0 3.0 0.00 0.00 0.00 55 1021.6
20260906115004 66 188 0.0 2.0 0.00 0.00 0.00 55 1021.6
20260906114504 66 262 2.0 3.0 0.00 0.00 0.00 55 1021.6
20260906114003 66 184 0.0 2.0 0.00 0.00 0.00 55 1021.4
20260906113504 66 233 3.0 3.0 0.00 0.00 0.00 55 1021.5
20260906111504 66 261 5.0 6.0 0.00 0.00 0.00 52 1021.3
20260906111004 66 271 5.0 5.0 0.00 0.00 0.00 52 1021.3
20260906110504 66 265 4.0 5.0 0.00 0.00 0.00 52 1021.3
20260906110004 66 241 4.0 5.0 0.00 0.00 0.00 53 1021.5
20260906105504 66 261 4.0 4.0 0.00 0.00 0.00 54 1021.3
20260906105004 65 274 4.0 5.0 0.00 0.00 0.00 56 1021.3
20260906104503 64 248 3.0 4.0 0.00 0.00 0.00 58 1021.3
20260906104003 65 258 3.0 4.0 0.00 0.00 0.00 58 1021.3
20260906103504 65 245 3.0 6.0 0.00 0.00 0.00 57 1021.1
20260906103003 66 259 2.0 4.0 0.00 0.00 0.00 55 1021.4
20260906102504 66 259 4.0 5.0 0.00 0.00 0.00 55 1021.5
20260906102003 66 212 0.0 2.0 0.00 0.00 0.00 55 1021.6
20260906101503 66 250 5.0 5.0 0.00 0.00 0.00 55 1021.5
20260906101004 66 256 3.0 5.0 0.00 0.00 0.00 56 1021.4
20260906100504 66 265 4.0 5.0 0.00 0.00 0.00 56 1021.4
20260906100004 65 260 3.0 3.0 0.00 0.00 0.00 57 1021.4
20260906095504 65 245 4.0 4.0 0.00 0.00 0.00 57 1021.4
20260906095004 65 264 5.0 5.0 0.00 0.00 0.00 57 1021.4
20260906094504 65 211 3.0 5.0 0.00 0.00 0.00 57 1021.5
20260906094003 65 261 3.0 4.0 0.00 0.00 0.00 56 1021.5
20260906093503 65 272 2.0 3.0 0.00 0.00 0.00 56 1021.3
20260906093004 65 232 3.0 3.0 0.00 0.00 0.00 55 1021.4
20260906092503 66 221 0.0 2.0 0.00 0.00 0.00 55 1021.5
20260906092003 66 267 4.0 5.0 0.00 0.00 0.00 54 1021.6
20260906091504 67 259 4.0 5.0 0.00 0.00 0.00 54 1021.3
20260906082504 66 264 4.0 5.0 0.00 0.00 0.00 58 1021.6
20260906082004 66 253 4.0 5.0 0.00 0.00 0.00 57 1021.6
20260906081504 66 262 5.0 6.0 0.00 0.00 0.00 57 1021.7
20260906081004 66 242 5.0 5.0 0.00 0.00 0.00 56 1021.6
20260906080503 67 265 5.0 6.0 0.00 0.00 0.00 56 1021.7
20260906080004 68 262 4.0 5.0 0.00 0.00 0.00 54 1021.8
20260906074004 67 261 4.0 5.0 0.00 0.00 0.00 55 1021.9
20260906073504 67 255 4.0 4.0 0.00 0.00 0.00 56 1022.0
20260906073004 66 256 4.0 4.0 0.00 0.00 0.00 57 1021.9
20260906065504 66 291 3.0 3.0 0.00 0.00 0.00 58 1022.3
20260906065004 66 245 3.0 4.0 0.00 0.00 0.00 57 1022.2
20260906064504 66 279 2.0 2.0 0.00 0.00 0.00 57 1022.2
20260906064003 66 317 0.0 2.0 0.00 0.00 0.00 58 1022.1
20260906063503 66 268 4.0 4.0 0.00 0.00 0.00 58 1022.1
20260906063004 67 261 3.0 4.0 0.00 0.00 0.00 56 1022.2
20260906062504 67 246 0.0 0.0 0.00 0.00 0.00 55 1022.2
20260906062004 67 267 2.0 3.0 0.00 0.00 0.00 55 1022.2
20260906061503 67 271 4.0 4.0 0.00 0.00 0.00 55 1022.1
20260906061003 67 269 3.0 3.0 0.00 0.00 0.00 56 1022.0
20260906060503 67 308 3.0 4.0 0.00 0.00 0.00 56 1022.3
20260906060004 66 268 4.0 5.0 0.00 0.00 0.00 58 1022.3
20260906055503 66 188 0.0 2.0 0.00 0.00 0.00 58 1022.1
20260906053504 68 186 0.0 0.0 0.00 0.00 0.00 56 1022.3
20260906053003 68 103 2.0 2.0 0.00 0.00 0.00 55 1022.3
20260906052503 68 81 0.0 3.0 0.00 0.00 0.00 56 1022.3
20260906052003 68 121 3.0 4.0 0.00 0.00 0.00 56 1022.4
20260906051504 68 128 2.0 2.0 0.00 0.00 0.00 55 1022.3
20260906051004 68 205 0.0 2.0 0.00 0.00 0.00 54 1022.4
20260906050504 69 199 2.0 4.0 0.00 0.00 0.00 53 1022.2
20260906050004 69 215 3.0 5.0 0.00 0.00 0.00 53 1022.2
20260906045503 69 241 4.0 5.0 0.00 0.00 0.00 53 1022.3
20260906045003 69 223 3.0 4.0 0.00 0.00 0.00 52 1022.3
20260906044504 69 266 3.0 4.0 0.00 0.00 0.00 53 1022.3
20260906044004 69 265 3.0 4.0 0.00 0.00 0.00 53 1022.2
20260906043504 69 264 4.0 4.0 0.00 0.00 0.00 54 1022.2
20260906043004 69 252 4.0 5.0 0.00 0.00 0.00 54 1022.2
20260906042503 69 267 5.0 6.0 0.00 0.00 0.00 55 1022.3
20260906042003 69 235 4.0 6.0 0.00 0.00 0.00 55 1022.2
20260906041504 69 260 3.0 3.0 0.00 0.00 0.00 55 1022.3
20260906041003 70 252 2.0 3.0 0.00 0.00 0.00 53 1022.2
20260906040503 70 263 3.0 3.0 0.00 0.00 0.00 53 1022.1
20260906040004 70 283 2.0 3.0 0.00 0.00 0.00 53 1022.2
20260906034004 69 272 5.0 5.0 0.00 0.00 0.00 54 1021.9
20260906033504 70 260 3.0 4.0 0.00 0.00 0.00 53 1022.1
20260906033004 70 227 2.0 3.0 0.00 0.00 0.00 52 1021.9
20260906032503 70 256 2.0 3.0 0.00 0.00 0.00 51 1021.9
20260906032003 70 263 4.0 4.0 0.00 0.00 0.00 52 1022.0
20260906031503 70 269 3.0 4.0 0.00 0.00 0.00 52 1021.9
20260906025503 71 269 2.0 2.0 0.00 0.00 0.00 52 1021.8
20260906025003 71 246 0.0 0.0 0.00 0.00 0.00 53 1021.7
20260906024504 71 309 0.0 0.0 0.00 0.00 0.00 52 1021.7
20260906024004 71 0 0.0 0.0 0.00 0.00 0.00 52 1021.7
20260906023504 71 309 0.0 0.0 0.00 0.00 0.00 52 1021.6
20260906023004 71 147 0.0 2.0 0.00 0.00 0.00 51 1021.7
20260906022503 72 207 4.0 5.0 0.00 0.00 0.00 51 1021.7
20260906022003 72 197 4.0 6.0 0.00 0.00 0.00 50 1021.8
20260906021504 72 199 3.0 3.0 0.00 0.00 0.00 50 1021.7
20260906015503 73 260 3.0 5.0 0.00 0.00 0.00 49 1021.7
20260906015004 73 199 6.0 8.0 0.00 0.00 0.00 49 1021.9
20260906014503 73 268 4.0 5.0 0.00 0.00 0.00 49 1021.8
20260906014003 73 259 5.0 5.0 0.00 0.00 0.00 49 1021.8
20260906013503 74 197 3.0 4.0 0.00 0.00 0.00 49 1021.8
20260906013003 74 262 5.0 9.0 0.00 0.00 0.00 48 1021.9
20260906012503 74 256 4.0 7.0 0.00 0.00 0.00 48 1021.8
20260906012003 74 248 5.0 5.0 0.00 0.00 0.00 48 1021.9
20260906011504 74 225 5.0 10.0 0.00 0.00 0.00 48 1021.7
20260906005503 75 248 3.0 4.0 0.00 0.00 0.00 47 1021.9
20260906005003 75 260 4.0 8.0 0.00 0.00 0.00 47 1022.0
20260906004504 76 223 7.0 10.0 0.00 0.00 0.00 47 1022.2
20260906004003 76 190 5.0 12.0 0.00 0.00 0.00 47 1021.9
20260906003503 76 238 7.0 14.0 0.00 0.00 0.00 47 1022.0
20260906003004 75 158 6.0 10.0 0.00 0.00 0.00 49 1022.1
20260906002503 75 180 6.0 9.0 0.00 0.00 0.00 49 1022.1
20260906002003 75 257 10.0 11.0 0.00 0.00 0.00 49 1022.0
20260906001504 75 219 3.0 14.0 0.00 0.00 0.00 49 1022.0
20260906001004 76 201 8.0 15.0 0.00 0.00 0.00 48 1022.0
20260906000504 77 197 7.0 15.0 0.00 0.00 0.00 47 1021.9
20260906000006 77 206 8.0 18.0 0.00 0.00 0.00 47 1022.0
20260905235503 78 202 15.0 18.0 0.00 0.00 0.00 46 1022.1
20260905235003 77 218 7.0 15.0 0.00 0.00 0.00 47 1022.0
20260905234504 75 226 11.0 20.0 0.00 0.00 0.00 49 1021.9
20260905234004 75 218 7.0 11.0 0.00 0.00 0.00 50 1021.9
20260905233504 76 207 15.0 20.0 0.00 0.00 0.00 49 1021.9
20260905233004 76 206 7.0 15.0 0.00 0.00 0.00 48 1021.9
20260905232503 76 215 8.0 11.0 0.00 0.00 0.00 47 1022.2
20260905232003 76 240 8.0 13.0 0.00 0.00 0.00 47 1022.1
20260905231504 76 227 10.0 15.0 0.00 0.00 0.00 47 1022.0
20260905231004 76 192 13.0 17.0 0.00 0.00 0.00 46 1022.0
20260905230504 76 253 7.0 14.0 0.00 0.00 0.00 45 1021.9
20260905230004 77 174 4.0 7.0 0.00 0.00 0.00 45 1022.0
20260905225504 76 190 11.0 11.0 0.00 0.00 0.00 46 1022.2
20260905225004 76 150 7.0 14.0 0.00 0.00 0.00 46 1022.0
20260905224504 76 196 2.0 13.0 0.00 0.00 0.00 47 1022.3
20260905224004 76 195 4.0 12.0 0.00 0.00 0.00 46 1022.3
20260905223504 76 169 5.0 6.0 0.00 0.00 0.00 48 1022.2
20260905223004 75 57 2.0 13.0 0.00 0.00 0.00 50 1022.0
20260905222504 75 138 9.0 14.0 0.00 0.00 0.00 51 1022.3
20260905222004 76 130 6.0 17.0 0.00 0.00 0.00 51 1022.2
20260905221503 76 163 3.0 10.0 0.00 0.00 0.00 50 1022.2
20260905221003 75 206 5.0 13.0 0.00 0.00 0.00 51 1022.3
20260905220504 76 158 9.0 19.0 0.00 0.00 0.00 50 1022.4
20260905220003 76 174 11.0 15.0 0.00 0.00 0.00 48 1022.3
20260905215504 77 184 16.0 17.0 0.00 0.00 0.00 47 1022.3
20260905215003 78 142 8.0 15.0 0.00 0.00 0.00 45 1022.1
20260905213003 79 218 7.0 15.0 0.00 0.00 0.00 43 1022.1
20260905212503 79 183 9.0 18.0 0.00 0.00 0.00 43 1022.3
20260905212004 80 149 12.0 18.0 0.00 0.00 0.00 42 1022.3
20260905211503 80 169 8.0 16.0 0.00 0.00 0.00 42 1022.3
20260905211003 82 200 4.0 17.0 0.00 0.00 0.00 40 1022.3
20260905210503 81 163 3.0 12.0 0.00 0.00 0.00 41 1022.3
20260905210003 80 157 3.0 20.0 0.00 0.00 0.00 42 1022.3
20260905205503 80 141 7.0 15.0 0.00 0.00 0.00 42 1022.4
20260905205004 79 198 12.0 15.0 0.00 0.00 0.00 42 1022.3
20260905204503 78 247 5.0 14.0 0.00 0.00 0.00 43 1022.3
20260905204003 79 216 15.0 20.0 0.00 0.00 0.00 42 1022.5
20260905203503 79 197 4.0 12.0 0.00 0.00 0.00 41 1022.5
20260905203003 79 140 10.0 20.0 0.00 0.00 0.00 41 1022.5
20260905202503 80 119 5.0 14.0 0.00 0.00 0.00 39 1022.4
20260905202003 80 136 19.0 22.0 0.00 0.00 0.00 39 1022.4
20260905201504 79 143 5.0 16.0 0.00 0.00 0.00 40 1022.5
20260905201004 80 221 13.0 18.0 0.00 0.00 0.00 38 1022.6
20260905200504 81 207 15.0 23.0 0.00 0.00 0.00 39 1022.5
20260905200004 82 222 10.0 17.0 0.00 0.00 0.00 37 1022.5
20260905195504 80 140 7.0 9.0 0.00 0.00 0.00 39 1022.5
20260905193503 78 215 7.0 15.0 0.00 0.00 0.00 39 1023.0
20260905193003 79 245 12.0 20.0 0.00 0.00 0.00 38 1022.9
20260905192503 78 185 5.0 9.0 0.00 0.00 0.00 37 1022.7
20260905192003 79 131 13.0 19.0 0.00 0.00 0.00 36 1022.9
20260905191504 79 141 12.0 14.0 0.00 0.00 0.00 36 1023.1
20260905191003 79 133 7.0 14.0 0.00 0.00 0.00 35 1022.9
20260905185003 79 182 8.0 9.0 0.00 0.00 0.00 34 1023.4
20260905184503 79 199 7.0 13.0 0.00 0.00 0.00 34 1023.5
20260905184003 79 153 6.0 12.0 0.00 0.00 0.00 35 1023.2
20260905183503 80 145 2.0 15.0 0.00 0.00 0.00 34 1023.2
20260905183003 78 222 4.0 9.0 0.00 0.00 0.00 34 1023.2
20260905182503 79 196 14.0 19.0 0.00 0.00 0.00 33 1023.2
20260905182004 78 248 5.0 12.0 0.00 0.00 0.00 33 1023.5
20260905181504 79 336 3.0 15.0 0.00 0.00 0.00 33 1023.5
20260905181004 80 165 7.0 12.0 0.00 0.00 0.00 34 1023.4
20260905180503 78 189 5.0 10.0 0.00 0.00 0.00 34 1023.1
20260905180004 77 152 8.0 19.0 0.00 0.00 0.00 35 1023.4
20260905175504 78 141 7.0 16.0 0.00 0.00 0.00 36 1023.5
20260905173504 79 145 6.0 8.0 0.00 0.00 0.00 34 1023.1
20260905173004 79 117 6.0 15.0 0.00 0.00 0.00 35 1023.2
20260905172504 78 139 9.0 15.0 0.00 0.00 0.00 35 1023.2
20260905170504 78 182 11.0 14.0 0.00 0.00 0.00 33 1023.2
20260905170004 79 170 5.0 13.0 0.00 0.00 0.00 34 1023.1
20260905165504 78 150 7.0 10.0 0.00 0.00 0.00 35 1023.4
20260905165004 77 201 5.0 17.0 0.00 0.00 0.00 34 1023.1
20260905164504 78 173 10.0 16.0 0.00 0.00 0.00 35 1023.4
20260905164004 77 227 8.0 13.0 0.00 0.00 0.00 35 1023.1
20260905163504 78 153 0.0 8.0 0.00 0.00 0.00 37 1023.1
20260905163004 78 192 3.0 8.0 0.00 0.00 0.00 37 1023.1
20260905162503 77 128 4.0 13.0 0.00 0.00 0.00 38 1023.0
20260905162003 77 128 11.0 13.0 0.00 0.00 0.00 38 1023.2
20260905161504 76 118 6.0 16.0 0.00 0.00 0.00 39 1022.9
20260905161004 77 112 6.0 10.0 0.00 0.00 0.00 38 1022.8
20260905160504 77 141 9.0 11.0 0.00 0.00 0.00 38 1022.9
20260905160004 76 135 5.0 11.0 0.00 0.00 0.00 38 1023.0
20260905155503 77 136 3.0 10.0 0.00 0.00 0.00 37 1023.0
20260905155003 76 126 5.0 13.0 0.00 0.00 0.00 38 1022.8
20260905154503 76 185 3.0 9.0 0.00 0.00 0.00 38 1022.8
20260905154003 77 106 5.0 7.0 0.00 0.00 0.00 39 1022.7
20260905153503 76 125 4.0 6.0 0.00 0.00 0.00 41 1023.0
20260905153004 76 156 3.0 6.0 0.00 0.00 0.00 41 1022.9
20260905152504 75 130 8.0 10.0 0.00 0.00 0.00 42 1022.8
20260905152004 75 82 2.0 6.0 0.00 0.00 0.00 43 1022.7
20260905150003 74 251 0.0 6.0 0.00 0.00 0.00 45 1022.7
20260905145504 73 116 4.0 6.0 0.00 0.00 0.00 46 1022.7
20260905145003 73 128 4.0 4.0 0.00 0.00 0.00 47 1022.9
20260905144503 73 125 5.0 6.0 0.00 0.00 0.00 43 1022.7
20260905144003 72 186 4.0 7.0 0.00 0.00 0.00 44 1022.8
20260905143503 72 162 2.0 4.0 0.00 0.00 0.00 45 1022.5
20260905143003 72 183 2.0 2.0 0.00 0.00 0.00 46 1022.6
20260905142504 70 23 0.0 2.0 0.00 0.00 0.00 48 1022.6
20260905141003 67 79 2.0 3.0 0.00 0.00 0.00 53 1022.6
20260905140503 65 66 0.0 3.0 0.00 0.00 0.00 55 1022.6
20260905140004 65 130 2.0 3.0 0.00 0.00 0.00 56 1022.5
20260905135504 65 234 3.0 3.0 0.00 0.00 0.00 57 1022.4
20260905135004 64 339 0.0 2.0 0.00 0.00 0.00 59 1022.3
20260905134503 61 77 2.0 2.0 0.00 0.00 0.00 63 1022.4
20260905134004 60 259 2.0 5.0 0.00 0.00 0.00 65 1022.3
20260905133503 59 271 4.0 5.0 0.00 0.00 0.00 66 1022.3